TI4JDD-10 messages


fromtotime message
TI0RHU-15 TI4JDD-10 08/27 18:07:55z Reply Descarga aqui: https://drive.google.com/uc?export=view&id=1SjWugmxQrAQ8JV-N7XykczUGMI6YlYHi
TI0RHU-15 TI4JDD-10 08/27 18:07:53z Reply ¡Gracias! QSL #76 lista. Nueva edicion cada mes/New QSL every month!
TI0RHU-15 TI4JDD-10 08/27 18:07:49z Reply Generando QSL...
TI4JDD-10 TI0RHU-15 08/27 18:07:49z Send another 1{20
TI0RHU-15 TI4JDD-10 08/27 18:07:01z Reply 1-QSL 2-JuntaDirectiva 3-WhatsApp 4-Rifas
TI0RHU-15 TI4JDD-10 08/27 18:06:55z Reply Hola Josue Duran! Conex #14 (12:06:46)
TI4JDD-10 TI0RHU-15 08/27 18:06:45z Send another Hola{19
TI4JDD-10 TI2CVJ-5 08/27 17:50:52z Send another Madrugué a las 7:50 de la mañana XD{2
TI4JDD-10 TI2CVJ-5 08/27 17:50:37z Send another Pa que vea{1
TI2CVJ-5 TI4JDD-10 08/27 11:50:15z Reply Como que de madrugon...{2
TI2CVJ-5 TI4JDD-10 08/26 21:58:10z Reply Que me dice{1
TI4JDD-10 TI4JCG-10 08/26 21:54:51z Send another .{2
TI4JDD-10 TI4JCG-10 08/26 21:54:51z Send another Hola <3{1
TI0RHU-15 TI4JDD-10 08/24 00:42:11z Reply Sesion finalizada. 73!
TI4JDD-10 TI0RHU-15 08/24 00:42:11z Send another 0{18
TI0RHU-15 TI4JDD-10 08/24 00:41:35z Reply Evento SSTV: Dom 13 Set 18-20h TI.
TI4JDD-10 TI0RHU-15 08/24 00:41:34z Send another 7{17
TI0RHU-15 TI4JDD-10 08/24 00:41:28z Reply 5-Clima 6-DriveQSLs 7-Eventos 0-Salir
TI0RHU-15 TI4JDD-10 08/24 00:41:26z Reply 1-QSL 2-Info 3-WhatsApp 4-Rifas
TI0RHU-15 TI4JDD-10 08/24 00:41:24z Reply Digite el # para avanzar
TI0RHU-15 TI4JDD-10 08/24 00:41:20z Reply Hola Josue Duran! Conex #13 (18:41:13)
TI4JDD-10 TI0RHU-15 08/24 00:41:13z Send another Hola RHU{16
TI0RHU-15 TI4JDD-10 08/23 20:49:41z Reply Sesion cerrada por inactividad. 73!
TI0RHU-15 TI4JDD-10 08/23 20:44:22z Reply Carpeta QSLs: https://drive.google.com/drive/folders/1Ybs-0TzSiRujyY_tzE3o5oqTRmeiIHfG?usp=sharing
TI0RHU-15 TI4JDD-10 08/23 20:44:19z Reply TI0RHU 146.440 RPT 147.000 +600 131.8 www.ti0rhu.org
TI0RHU-15 TI4JDD-10 08/23 20:44:16z Reply Rifas: https://6edwht.s.gy/RifaTI0RHU
TI0RHU-15 TI4JDD-10 08/23 20:44:13z Reply Volcan Barva 2906m: Temp 10.0C | Hum 95% | Viento 9.8km/h
TI0RHU-15 TI4JDD-10 08/23 20:44:12z Reply 5-Generar QSL 6-Carpeta QSLs 0-Salir
TI0RHU-15 TI4JDD-10 08/23 20:44:11z Reply 1-Info 2-Rifas 3-Clima 4-Contacto WA
TI4JDD-10 TI0RHU-15 08/23 20:44:09z Send another 6{15
TI4JDD-10 TI0RHU-15 08/23 20:44:09z Send another 1{14
TI4JDD-10 TI0RHU-15 08/23 20:44:09z Send another 2{13
TI4JDD-10 TI0RHU-15 08/23 20:44:09z Send another 3{12
TI0RHU-15 TI4JDD-10 08/23 20:44:09z Reply WhatsApp TI0RHU: https://wa.me/+50685600404
TI4JDD-10 TI0RHU-15 08/23 20:44:09z Send another 4{11
TI0RHU-15 TI4JDD-10 08/23 20:42:59z Reply Tu QSL #46: https://drive.google.com/uc?export=view&id=1vOzxyd-WaBjizHptNgsB-b_yFNzIkZQQ
TI0RHU-15 TI4JDD-10 08/23 20:42:55z Reply Generando tu QSL individual...
TI4JDD-10 TI0RHU-15 08/23 20:42:54z Send another 5{10
TI0RHU-15 TI4JDD-10 08/23 20:41:31z Reply Hola Josue Duran! Conex #12 (14:41:25)
TI4JDD-10 TI0RHU-15 08/23 20:41:25z Send another Hola{9
TI4JDD-10 TI2CVJ-10 08/23 20:39:26z Send another Hola{1
TI4JDD-10 TI0RHU-15 08/23 20:38:01z Send another Costa Rica{8
TI0RHU-15 TI4JDD-10 08/23 20:37:55z Reply Opcion invalida.
TI0RHU-15 TI4JDD-10 08/23 20:37:51z Reply Hola Josue Duran! Conex #11 (14:37:45)
TI4JDD-10 TI0RHU-15 08/23 20:37:48z Send another 86963758{7
TI4JDD-10 TI0RHU-15 08/23 20:37:42z Send another Josué{6
TI4JDD-10 TI0RHU-15 08/23 20:37:42z Send another 0{5
TI0RHU-15 TI4JDD-10 08/23 20:27:28z Reply Volcan Barva 2906m: Temp 10.1C | Hum 95% | Viento 10.1km/h
TI0RHU-15 TI4JDD-10 08/23 20:26:56z Reply Tu QSL #45: https://drive.google.com/uc?export=view&id=1mVoHHGfowsh6PWvgTN6V96fxWfcP_9Fu
TI0RHU-15 TI4JDD-10 08/23 20:24:55z Reply Hola Josue Duran! Conex #10 (14:24:48)
TI0RHU-15 TI4JDD-10 08/23 20:21:41z Reply Hola Josue Duran! Conex #9 (14:21:33)
TI0RHU-15 TI4JDD-10 08/23 20:18:57z Reply Tu QSL #44: https://drive.google.com/uc?export=view&id=1LxbUcj9DG5Axpepjp1huIdTpmxorrmKQ
TI0RHU-15 TI4JDD-10 08/23 20:16:55z Reply Hola Josue Duran! Conex #8 (14:16:47)
TI0RHU-15 TI4JDD-10 08/23 20:14:55z Reply Tu QSL #43: https://drive.google.com/uc?export=view&id=1dv4yzSvKiHlMqKVQNDpGQKpDvCshPEr7
TI0RHU-15 TI4JDD-10 08/23 20:13:29z Reply Volcan Barva 2906m: Temp 10.1C | Hum 96% | Viento 10.1km/h
TI0RHU-15 TI4JDD-10 08/23 20:13:25z Reply Hola Josue Duran! Conex #7 (14:13:18)
TI0RHU-15 TI4JDD-10 08/23 20:13:02z Reply Tu QSL #42: https://drive.google.com/uc?export=view&id=1vHd96EooT3FjhRXwnK7AMLoZUb3jyBlh
TI0RHU-15 TI4JDD-10 08/23 20:12:55z Reply Hola Josue Duran! Conex #6 (14:12:47)
TI0RHU-15 TI4JDD-10 08/23 20:11:54z Reply Tu QSL #41: https://drive.google.com/uc?export=view&id=1HomBPQTPCQErv-FfjJ-GaZwMpkasxvsu
TI0RHU-15 TI4JDD-10 08/23 20:11:23z Reply Tu QSL #40: https://drive.google.com/uc?export=view&id=1uMsZJG1LSnHCexHHJG2jYfqvqYCrM-3p
TI0RHU-15 TI4JDD-10 08/23 20:10:55z Reply Hola Josue Duran! Conex #5 (14:10:47)
TI4JDD-10 TI0RHU-15 08/23 20:10:25z Send another 0{4
TI0RHU-15 TI4JDD-10 08/23 20:09:55z Reply Hola Josue Duran! Conex #4 (14:09:48)
TI0RHU-15 TI4JDD-10 08/23 20:09:22z Reply Hola Josue Duran! Conex #3 (14:09:15)
TI0RHU-15 TI4JDD-10 08/23 20:07:40z Reply Hola Josue! Conex #2 (14:07:32)
TI0RHU-15 TI4JDD-10 08/23 20:06:30z Reply ¡Perfil guardado exitosamente!
TI0RHU-15 TI4JDD-10 08/23 20:06:18z Reply ¿De cual pais te conectas?
TI0RHU-15 TI4JDD-10 08/23 20:06:06z Reply ¿WhatsApp? (Ej: 50688350473 o 0=omitir)
TI0RHU-15 TI4JDD-10 08/23 20:05:39z Reply Registro BBS TI0RHU. ¿Cual es tu Nombre?
TI0RHU-15 TI4JDD-10 08/23 20:05:38z Reply Bienvenido a TI0RHU BBS TI4JDD!
TI4JDD-10 TI0RHU-15 08/23 20:02:16z Send another 0{3
TI0RHU-15 TI4JDD-10 08/23 20:02:05z Reply Tu QSL #39: https://drive.google.com/uc?export=view&id=1aOHUadih-5OWNmqKy_OmVkIJkUlckNz6
TI4JDD-10 TI0RHU-15 08/23 20:02:01z Send another 5{2
TI0RHU-15 TI4JDD-10 08/23 20:01:53z Reply Hola Josue! Conex #20 (14:01:45)
TI4JDD-10 TI0RHU-15 08/23 20:01:45z Send another RHU{1
TI0RHU-15 TI4JDD-10 08/23 19:54:33z Reply Hola Josue! Conex #19 (13:54:24)
TI0RHU-15 TI4JDD-10 08/23 19:46:03z Reply Tu QSL #38: https://drive.google.com/uc?export=view&id=1mwSAyPwJG4LKpjtuLzqnOtkLkRev0nF9
TI0RHU-15 TI4JDD-10 08/23 19:45:52z Reply Hola Josue! Conex #18 (13:45:44)
TI0RHU-15 TI4JDD-10 08/23 19:40:30z Reply Hola Josue! Conex #17 (13:40:23)
TI0RHU-15 TI4JDD-10 08/23 19:38:59z Reply Hola Josue! Conex #16 (13:38:52)
TI0RHU-15 TI4JDD-10 08/23 19:38:02z Reply Tu QSL #37: https://drive.google.com/uc?export=view&id=11HVdcl5Wp16SK5OSoMFyOEi5-qtgN0Wy
TI0RHU-15 TI4JDD-10 08/23 19:37:52z Reply Hola Josue! Conex #15 (13:37:43)
TI0RHU-15 TI4JDD-10 08/23 19:34:03z Reply Tu QSL #36: https://drive.google.com/uc?export=view&id=1v4uTOOxtHm5JhA4T4dUn0zLqaXuTraCl
TI0RHU-15 TI4JDD-10 08/23 19:33:52z Reply Hola Josue! Conex #14 (13:33:45)
TI0RHU-15 TI4JDD-10 08/23 19:32:01z Reply Tu QSL #35: https://drive.google.com/uc?export=view&id=1XJc_c3mP89kLLBJo0tFQIoA9oT0_nHE7
TI0RHU-15 TI4JDD-10 08/23 19:31:48z Reply Hola Josue! Conex #13 (13:31:42)
TI0RHU-15 TI4JDD-10 08/23 19:31:05z Reply Hola Josue! Conex #12 (13:30:57)
TI0RHU-15 TI4JDD-10 08/23 19:30:31z Reply Tu QSL #34: https://drive.google.com/uc?export=view&id=1tv_W2ypyI4UWEMHqbefCqd5YasaH2wEC
TI0RHU-15 TI4JDD-10 08/23 19:30:18z Reply Hola Josue! Conex #11 (13:30:11)
TI4JDD-10 TI2CVJ-10 08/23 19:29:37z Send another Hola{2
TI0RHU-15 TI4JDD-10 08/23 18:51:09z Reply Tu QSL #31: Abre o copia el enlace https://drive.google.com/uc?export=view&id=11R0oa1rGMj37S1jb0N_8Pan6buVSTLX5
TI4JDD-10 TI0RHU-15 08/23 18:51:01z Send another 5
TI0RHU-15 TI4JDD-10 08/23 18:50:53z Reply Hola Josue! Conex #10 (12:50:46)
TI4JDD-10 TI0RHU-15 08/23 18:50:46z Send another Hola
TI0RHU-15 TI4JDD-10 08/23 16:45:53z Reply Hola Josue! Conex #9 (10:45:46)
TI4JDD-10 TI0RHU-15 08/23 16:45:46z Send another hola {SV}
TI4JDD-10 TI0RHU-15 08/23 16:43:57z Send another 0
TI0RHU-15 TI4JDD-10 08/23 16:43:45z Reply Hola Josue! Conex #8 (10:43:38)
TI0RHU-15 TI4JDD-10 08/23 16:42:08z Reply Hola Josue! Conex #7 (10:42:02)
TI0RHU-15 TI4JDD-10 08/23 16:41:05z Reply Hola Josue! Conex #6 (10:40:58)